When you browse on this site, cookies collect data to enhance your experience and personalize the content and advertising you see.
Visit our Privacy Policy to learn more. By continuing to use the site, you agree to this use of cookies and data.
  • In Austria
  • List of Countries
  • For 7 days
  • Water Temperature
  • Weather Map
  • News
  • Weather Widgets
  • user-avatar
    Login

    Hourly Weather Durres

    Today, 10 December, Tuesday

    Time Temperature Precipitation Wind Pressure Humidity
    00:00 +10°C° 1.1 mm 6 mps 755 mmHg 79%
    01:00 +10°C° 1.1 mm 6 mps 754 mmHg 83%
    02:00 +10°C° 1.8 mm 5 mps 754 mmHg 83%
    03:00 +10°C° 1.8 mm 5 mps 754 mmHg 84%
    04:00 +10°C° 1.8 mm 5 mps 753 mmHg 84%
    05:00 +10°C° 2.7 mm 5 mps 753 mmHg 87%
    06:00 +10°C° 2.7 mm 5 mps 753 mmHg 89%
    07:00 +9°C° 2.7 mm 5 mps 754 mmHg 92%
    08:00 +10°C° 1.7 mm 5 mps 754 mmHg 92%
    09:00 +10°C° 1.7 mm 5 mps 754 mmHg 91%
    10:00 +10°C° 1.7 mm 5 mps 754 mmHg 91%
    11:00 +10°C° 0.6 mm 5 mps 753 mmHg 91%
    12:00 +10°C° 0.6 mm 5 mps 753 mmHg 91%
    13:00 +10°C° 0.6 mm 6 mps 753 mmHg 91%
    14:00 +10°C° 0.4 mm 6 mps 753 mmHg 91%
    15:00 +10°C° 0.4 mm 6 mps 753 mmHg 91%
    16:00 +10°C° 0.4 mm 6 mps 753 mmHg 91%
    17:00 +10°C° 0.2 mm 6 mps 753 mmHg 89%
    18:00 +10°C° 0.2 mm 6 mps 753 mmHg 88%
    19:00 +10°C° 0.2 mm 6 mps 753 mmHg 86%
    20:00 +9°C° 0 mm 6 mps 753 mmHg 85%
    21:00 +9°C° 0 mm 6 mps 754 mmHg 83%
    22:00 +9°C° 0 mm 5 mps 754 mmHg 82%
    23:00 +9°C° 0 mm 5 mps 754 mmHg 81%

    Tomorrow, 11 December, Wednesday

    Time Temperature Precipitation Wind Pressure Humidity
    00:00 +9°C° 0 mm 6 mps 754 mmHg 80%
    01:00 +10°C° 0 mm 6 mps 754 mmHg 79%
    02:00 +9°C° 0 mm 6 mps 754 mmHg 79%
    03:00 +9°C° 0 mm 7 mps 754 mmHg 78%
    04:00 +9°C° 0 mm 7 mps 754 mmHg 77%
    05:00 +9°C° 0 mm 8 mps 754 mmHg 77%
    06:00 +9°C° 0 mm 8 mps 754 mmHg 76%
    07:00 +9°C° 0 mm 8 mps 754 mmHg 75%
    08:00 +10°C° 0 mm 8 mps 754 mmHg 71%
    09:00 +11°C° 0 mm 8 mps 755 mmHg 68%
    10:00 +12°C° 0 mm 7 mps 755 mmHg 64%
    11:00 +12°C° 0 mm 7 mps 755 mmHg 61%
    12:00 +14°C° 0 mm 7 mps 755 mmHg 58%
    13:00 +15°C° 0 mm 7 mps 754 mmHg 55%
    14:00 +14°C° 0 mm 7 mps 754 mmHg 59%
    15:00 +12°C° 0 mm 7 mps 754 mmHg 64%
    16:00 +11°C° 0 mm 7 mps 754 mmHg 68%
    17:00 +10°C° 0 mm 7 mps 754 mmHg 69%
    18:00 +10°C° 0 mm 6 mps 754 mmHg 70%
    19:00 +9°C° 0 mm 6 mps 754 mmHg 71%
    20:00 +8°C° 0 mm 5 mps 754 mmHg 71%
    21:00 +8°C° 0 mm 5 mps 755 mmHg 72%
    22:00 +8°C° 0 mm 5 mps 755 mmHg 73%
    23:00 +7°C° 0 mm 5 mps 754 mmHg 72%

    Day after tomorrow, 12 December, Thursday

    Time Temperature Precipitation Wind Pressure Humidity
    00:00 +7°C° 0 mm 4 mps 754 mmHg 72%
    01:00 +7°C° 0 mm 4 mps 754 mmHg 72%
    02:00 +8°C° 0 mm 3 mps 754 mmHg 72%
    03:00 +7°C° 0 mm 3 mps 754 mmHg 72%
    04:00 +7°C° 0 mm 2 mps 753 mmHg 72%
    05:00 +7°C° 0 mm 2 mps 753 mmHg 73%
    06:00 +7°C° 0 mm 2 mps 754 mmHg 73%
    07:00 +7°C° 0 mm 2 mps 754 mmHg 74%
    08:00 +9°C° 0 mm 1 mps 754 mmHg 70%
    09:00 +11°C° 0 mm 1 mps 754 mmHg 66%
    10:00 +12°C° 0 mm 1 mps 754 mmHg 62%
    11:00 +12°C° 0 mm 1 mps 753 mmHg 62%
    12:00 +13°C° 0 mm 1 mps 753 mmHg 61%
    13:00 +13°C° 0 mm 2 mps 753 mmHg 61%
    14:00 +13°C° 0 mm 2 mps 753 mmHg 65%
    15:00 +11°C° 0 mm 3 mps 752 mmHg 68%
    16:00 +10°C° 0 mm 3 mps 752 mmHg 72%
    17:00 +10°C° 0.2 mm 4 mps 752 mmHg 73%
    18:00 +10°C° 0.2 mm 4 mps 752 mmHg 74%
    19:00 +8°C° 0.2 mm 5 mps 752 mmHg 75%
    20:00 +8°C° 0.5 mm 5 mps 752 mmHg 75%
    21:00 +8°C° 0.5 mm 6 mps 752 mmHg 75%
    22:00 +8°C° 0.5 mm 7 mps 752 mmHg 75%
    23:00 +8°C° 0.8 mm 6 mps 752 mmHg 78%

    13 December, Friday

    Time Temperature Precipitation Wind Pressure Humidity
    00:00 +8°C° 0.8 mm 6 mps 752 mmHg 81%
    01:00 +8°C° 0.8 mm 6 mps 752 mmHg 84%
    02:00 +8°C° 0.5 mm 6 mps 752 mmHg 84%
    03:00 +8°C° 0.5 mm 6 mps 752 mmHg 85%
    04:00 +8°C° 0.5 mm 6 mps 752 mmHg 86%
    05:00 +8°C° 0.4 mm 5 mps 752 mmHg 85%
    06:00 +8°C° 0.4 mm 5 mps 752 mmHg 83%
    07:00 +7°C° 0.4 mm 4 mps 752 mmHg 82%
    08:00 +8°C° 0.4 mm 4 mps 752 mmHg 78%
    09:00 +10°C° 0.4 mm 4 mps 752 mmHg 73%
    10:00 +11°C° 0.4 mm 4 mps 752 mmHg 69%
    11:00 +12°C° 0.1 mm 4 mps 752 mmHg 65%
    12:00 +12°C° 0.1 mm 5 mps 752 mmHg 61%
    13:00 +12°C° 0.1 mm 5 mps 751 mmHg 58%
    14:00 +11°C° 0 mm 6 mps 751 mmHg 61%
    15:00 +10°C° 0 mm 7 mps 751 mmHg 65%
    16:00 +9°C° 0 mm 7 mps 750 mmHg 68%
    17:00 +8°C° 0.2 mm 9 mps 750 mmHg 70%
    18:00 +8°C° 0.2 mm 10 mps 749 mmHg 71%
    19:00 +8°C° 0.2 mm 12 mps 749 mmHg 72%
    20:00 +8°C° 1 mm 13 mps 748 mmHg 74%
    21:00 +8°C° 1 mm 14 mps 746 mmHg 76%
    22:00 +6°C° 1 mm 15 mps 745 mmHg 78%
    23:00 +6°C° 5.4 mm 15 mps 744 mmHg 82%

    14 December, Saturday

    Time Temperature Precipitation Wind Pressure Humidity
    00:00 +8°C° 5.4 mm 15 mps 743 mmHg 86%
    01:00 +8°C° 5.4 mm 14 mps 742 mmHg 89%
    02:00 +8°C° 2 mm 14 mps 742 mmHg 89%
    03:00 +8°C° 2 mm 13 mps 742 mmHg 88%
    04:00 +8°C° 2 mm 12 mps 742 mmHg 87%
    05:00 +8°C° 0.5 mm 13 mps 743 mmHg 83%
    06:00 +9°C° 0.5 mm 13 mps 744 mmHg 79%
    07:00 +9°C° 0.5 mm 13 mps 745 mmHg 75%
    08:00 +9°C° 0.5 mm 14 mps 746 mmHg 77%
    09:00 +9°C° 0.5 mm 14 mps 747 mmHg 78%
    10:00 +9°C° 0.5 mm 14 mps 747 mmHg 80%
    11:00 +10°C° 0.1 mm 14 mps 748 mmHg 78%
    12:00 +10°C° 0.1 mm 14 mps 748 mmHg 76%
    13:00 +12°C° 0.1 mm 13 mps 749 mmHg 74%
    14:00 +10°C° 0 mm 12 mps 750 mmHg 74%
    15:00 +11°C° 0 mm 11 mps 751 mmHg 73%
    16:00 +9°C° 0 mm 10 mps 752 mmHg 73%
    17:00 +9°C° 0 mm 8 mps 753 mmHg 74%
    18:00 +9°C° 0 mm 7 mps 754 mmHg 75%
    19:00 +8°C° 0 mm 5 mps 755 mmHg 76%
    20:00 +8°C° 0 mm 4 mps 756 mmHg 77%
    21:00 +9°C° 0 mm 3 mps 757 mmHg 78%
    22:00 +8°C° 0 mm 2 mps 757 mmHg 79%
    23:00 +8°C° 0 mm 2 mps 758 mmHg 79%

    15 December, Sunday

    Time Temperature Precipitation Wind Pressure Humidity
    00:00 +8°C° 0 mm 2 mps 758 mmHg 79%
    01:00 +8°C° 0 mm 2 mps 759 mmHg 78%
    02:00 +8°C° 0 mm 3 mps 759 mmHg 77%
    03:00 +8°C° 0 mm 3 mps 760 mmHg 77%
    04:00 +8°C° 0 mm 3 mps 760 mmHg 76%
    05:00 +8°C° 0 mm 3 mps 761 mmHg 75%
    06:00 +8°C° 0 mm 3 mps 761 mmHg 73%
    07:00 +8°C° 0 mm 3 mps 761 mmHg 72%
    08:00 +9°C° 0 mm 3 mps 762 mmHg 69%
    09:00 +11°C° 0 mm 3 mps 762 mmHg 65%
    10:00 +12°C° 0 mm 3 mps 763 mmHg 61%
    11:00 +13°C° 0 mm 3 mps 763 mmHg 59%
    12:00 +15°C° 0 mm 2 mps 763 mmHg 57%
    13:00 +16°C° 0 mm 2 mps 763 mmHg 55%
    14:00 +15°C° 0 mm 2 mps 763 mmHg 59%
    15:00 +14°C° 0 mm 2 mps 763 mmHg 63%
    16:00 +14°C° 0 mm 2 mps 763 mmHg 67%
    17:00 +12°C° 0 mm 3 mps 764 mmHg 67%
    18:00 +12°C° 0 mm 3 mps 764 mmHg 68%
    19:00 +12°C° 0 mm 3 mps 764 mmHg 68%
    20:00 +11°C° 0 mm 3 mps 765 mmHg 68%
    21:00 +11°C° 0 mm 3 mps 765 mmHg 67%
    22:00 +11°C° 0 mm 3 mps 765 mmHg 67%
    23:00 +11°C° 0 mm 3 mps 765 mmHg 67%
    Show more